TRA2603 EHAM-LTAI

Flight info

Callsign TRA2603
Flight time N/A
Altitude 37000
Route EDUPO Z739 MISGO DCT DIXAT DCT TIVUN DCT ESAMA DCT OSBIT DCT TENLO DCT LAMSI DCT BARUG DCT SASAL DCT SOGMO DCT BABIT DCT NISVA DCT USALI DCT RODIP DCT BELGI UN131 KOZLU
Aircraft B738/M-SDE2E3FGHIJ1RWXY/LB1

Departure

Time 2026-04-29 00:30
Airport Amsterdam Airport Schiphol (EHAM)

Arrival

Time N/A
Airport Antalya International Airport (LTAI)
Time Latitude Longitude Altitude Speed Heading
2026-04-29 00:04 52.31136 4.77261 -29 ft 0 kts
2026-04-29 00:17 52.31129 4.77260 -2 ft 2 kts
2026-04-29 00:17 52.31116 4.77258 -2 ft 2 kts
2026-04-29 00:18 52.31103 4.77255 -2 ft 2 kts 13°
2026-04-29 00:18 52.31091 4.77250 -2 ft 2 kts 27°
2026-04-29 00:18 52.31083 4.77241 -2 ft 2 kts 50°
2026-04-29 00:18 52.31078 4.77228 -2 ft 1 kts 73°
2026-04-29 00:19 52.31076 4.77212 -2 ft 1 kts 86°
2026-04-29 00:19 52.31076 4.77201 -2 ft 1 kts 90°
2026-04-29 00:19 52.31076 4.77191 -2 ft 1 kts 92°
2026-04-29 00:19 52.31076 4.77182 -2 ft 1 kts 94°
2026-04-29 00:20 52.31077 4.77172 -2 ft 1 kts 94°
2026-04-29 00:20 52.31077 4.77170 -2 ft 0 kts 95°
2026-04-29 00:23 52.31076 4.77206 -2 ft 7 kts 94°
2026-04-29 00:23 52.31072 4.77321 -2 ft 12 kts 92°
2026-04-29 00:23 52.31081 4.77469 -2 ft 14 kts 49°
2026-04-29 00:23 52.31202 4.77501 -2 ft 21 kts
2026-04-29 00:24 52.31333 4.77432 -2 ft 20 kts 313°
2026-04-29 00:24 52.31425 4.77259 -2 ft 20 kts 312°
2026-04-29 00:24 52.31483 4.77067 -2 ft 19 kts 269°
2026-04-29 00:24 52.31476 4.76855 -2 ft 19 kts 267°
2026-04-29 00:25 52.31469 4.76648 -2 ft 18 kts 267°
2026-04-29 00:25 52.31463 4.76447 -2 ft 17 kts 267°
2026-04-29 00:25 52.31456 4.76254 -2 ft 17 kts 266°
2026-04-29 00:25 52.31449 4.76068 -2 ft 16 kts 266°
2026-04-29 00:26 52.31443 4.75889 -2 ft 15 kts 266°
2026-04-29 00:26 52.31436 4.75717 -2 ft 15 kts 266°
2026-04-29 00:26 52.31430 4.75543 -2 ft 18 kts 267°
2026-04-29 00:26 52.31420 4.75287 -2 ft 25 kts 266°
2026-04-29 00:27 52.31411 4.74999 -2 ft 23 kts 267°
2026-04-29 00:27 52.31404 4.74767 -2 ft 19 kts 267°
2026-04-29 00:27 52.31471 4.74671 -2 ft 15 kts 356°
2026-04-29 00:27 52.31572 4.74661 -2 ft 12 kts 356°
2026-04-29 00:28 52.31651 4.74685 -1 ft 12 kts 37°
2026-04-29 00:28 52.31667 4.74769 -2 ft 0 kts 87°
2026-04-29 00:29 52.31668 4.74783 -2 ft 7 kts 87°
2026-04-29 00:29 52.31677 4.75065 -4 ft 56 kts 86°
2026-04-29 00:29 52.31714 4.76076 -2 ft 120 kts 85°
2026-04-29 00:29 52.31770 4.77735 46 ft 167 kts 86°
2026-04-29 00:30 52.31829 4.79586 981 ft 153 kts 86°
2026-04-29 00:30 52.31878 4.80673 1799 ft 140 kts 86°
2026-04-29 00:30 52.31956 4.82942 2446 ft 169 kts 89°
2026-04-29 00:30 52.32006 4.84999 2667 ft 192 kts 88°
2026-04-29 00:31 52.31879 4.87262 2993 ft 208 kts 103°
2026-04-29 00:31 52.31359 4.89592 3230 ft 229 kts 111°
2026-04-29 00:31 52.30705 4.92036 3758 ft 240 kts 111°
2026-04-29 00:31 52.30028 4.94547 4534 ft 244 kts 111°
2026-04-29 00:32 52.29369 4.97134 5278 ft 248 kts 106°
2026-04-29 00:32 52.28865 4.99846 6036 ft 251 kts 103°
2026-04-29 00:32 52.28400 5.02614 6779 ft 255 kts 103°
2026-04-29 00:32 52.27927 5.05438 7479 ft 260 kts 103°
2026-04-29 00:33 52.27442 5.08305 8180 ft 264 kts 103°
2026-04-29 00:33 52.26944 5.11204 8926 ft 266 kts 103°
2026-04-29 00:33 52.26439 5.14125 9633 ft 271 kts 104°
2026-04-29 00:33 52.25918 5.17119 10327 ft 275 kts 104°
2026-04-29 00:34 52.25386 5.20156 10803 ft 287 kts 104°
2026-04-29 00:34 52.24818 5.23396 11028 ft 307 kts 104°
2026-04-29 00:34 52.24032 5.26745 11354 ft 325 kts 118°
2026-04-29 00:34 52.22745 5.29863 11800 ft 337 kts 123°
2026-04-29 00:35 52.21355 5.32973 12433 ft 342 kts 124°
2026-04-29 00:35 52.19944 5.36115 13107 ft 346 kts 124°
2026-04-29 00:35 52.18593 5.39156 13821 ft 348 kts 123°
2026-04-29 00:35 52.17173 5.42381 14481 ft 352 kts 123°
2026-04-29 00:36 52.15743 5.45647 15135 ft 356 kts 123°
2026-04-29 00:36 52.14305 5.48942 15838 ft 358 kts 123°
2026-04-29 00:36 52.12857 5.52256 16516 ft 362 kts 123°
2026-04-29 00:36 52.11409 5.55566 17177 ft 365 kts 123°
2026-04-29 00:37 52.09929 5.58947 17839 ft 369 kts 122°
2026-04-29 00:37 52.08428 5.62370 18448 ft 374 kts 122°
2026-04-29 00:37 52.06909 5.65828 19052 ft 377 kts 122°
2026-04-29 00:37 52.05337 5.69252 19661 ft 380 kts 126°
2026-04-29 00:38 52.03614 5.72520 20268 ft 383 kts 128°
2026-04-29 00:38 52.01832 5.75757 20854 ft 386 kts 128°
2026-04-29 00:38 52.00050 5.79026 21417 ft 388 kts 128°
2026-04-29 00:38 51.98265 5.82345 21979 ft 391 kts 127°
2026-04-29 00:39 51.96479 5.85684 22511 ft 394 kts 127°
2026-04-29 00:39 51.94672 5.89054 23027 ft 397 kts 127°
2026-04-29 00:39 51.92854 5.92439 23578 ft 400 kts 127°
2026-04-29 00:39 51.91024 5.95841 24082 ft 402 kts 127°
2026-04-29 00:40 51.89178 5.99270 24501 ft 405 kts 127°
2026-04-29 00:40 51.87320 6.02714 24919 ft 408 kts 127°
2026-04-29 00:40 51.85450 6.06176 25335 ft 410 kts 127°
2026-04-29 00:40 51.84199 6.08479 25590 ft 412 kts 127°
2026-04-29 00:42 51.74496 6.26204 27520 ft 426 kts 127°
2026-04-29 00:42 51.72525 6.29803 27885 ft 428 kts 127°
2026-04-29 00:42 51.70547 6.33411 28232 ft 431 kts 128°
2026-04-29 00:42 51.68552 6.37047 28580 ft 434 kts 128°
2026-04-29 00:43 51.66547 6.40694 28918 ft 437 kts 128°
2026-04-29 00:43 51.64527 6.44362 29256 ft 439 kts 128°
2026-04-29 00:43 51.62490 6.48055 29587 ft 442 kts 128°
2026-04-29 00:43 51.60446 6.51753 29906 ft 444 kts 128°
2026-04-29 00:44 51.58388 6.55473 30204 ft 447 kts 128°
2026-04-29 00:44 51.56312 6.59220 30468 ft 449 kts 128°
2026-04-29 00:44 51.54229 6.62976 30698 ft 451 kts 128°
2026-04-29 00:44 51.52136 6.66743 30987 ft 452 kts 129°
2026-04-29 00:45 51.50495 6.69694 31264 ft 451 kts 129°
2026-04-29 00:45 51.48405 6.73447 31638 ft 450 kts 129°
2026-04-29 00:45 51.46316 6.77193 31974 ft 450 kts 129°
2026-04-29 00:45 51.44234 6.80924 32277 ft 450 kts 129°
2026-04-29 00:46 51.42140 6.84669 32600 ft 450 kts 129°
2026-04-29 00:46 51.40060 6.88416 32926 ft 449 kts 128°
2026-04-29 00:46 51.38075 6.92273 33240 ft 448 kts 126°
2026-04-29 00:46 51.36150 6.96191 33529 ft 448 kts 126°
2026-04-29 00:47 51.34237 7.00122 33843 ft 448 kts 126°
2026-04-29 00:47 51.32313 7.04047 34148 ft 448 kts 127°
2026-04-29 00:47 51.30378 7.07951 34415 ft 448 kts 127°
2026-04-29 00:47 51.28428 7.11855 34615 ft 449 kts 127°
2026-04-29 00:48 51.26497 7.15768 34838 ft 449 kts 124°
2026-04-29 00:48 51.24726 7.19878 35053 ft 449 kts 122°
2026-04-29 00:48 51.23023 7.24060 35259 ft 450 kts 121°
2026-04-29 00:48 51.21343 7.28266 35467 ft 450 kts 121°
2026-04-29 00:49 51.19660 7.32474 35689 ft 450 kts 121°
2026-04-29 00:49 51.17966 7.36679 35889 ft 451 kts 121°
2026-04-29 00:49 51.16262 7.40870 36078 ft 452 kts 122°
2026-04-29 00:49 51.14543 7.45069 36290 ft 452 kts 122°
2026-04-29 00:50 51.12825 7.49247 36496 ft 452 kts 122°
2026-04-29 00:50 51.11099 7.53434 36686 ft 452 kts 122°
2026-04-29 00:50 51.09371 7.57616 36873 ft 453 kts 122°
2026-04-29 00:50 51.07637 7.61806 37065 ft 453 kts 122°
2026-04-29 00:51 51.05907 7.65981 37263 ft 453 kts 122°
2026-04-29 00:51 51.02415 7.74393 37293 ft 457 kts 122°
2026-04-29 00:52 50.98918 7.82790 37268 ft 454 kts 122°
2026-04-29 00:52 50.95443 7.91112 37260 ft 451 kts 122°
2026-04-29 00:53 50.91823 7.99222 37250 ft 451 kts 131°
2026-04-29 00:53 50.87354 8.06170 37246 ft 451 kts 136°
2026-04-29 00:54 50.82834 8.12903 37262 ft 455 kts 136°
2026-04-29 00:54 50.78211 8.19855 37257 ft 462 kts 136°
2026-04-29 00:55 50.73556 8.26907 37248 ft 466 kts 136°
2026-04-29 00:55 50.68863 8.34013 37250 ft 468 kts 136°
2026-04-29 00:56 50.64422 8.40719 37241 ft 462 kts 136°
2026-04-29 00:56 50.59803 8.47671 37255 ft 459 kts 136°
2026-04-29 00:57 50.55182 8.54606 37274 ft 459 kts 136°
2026-04-29 00:57 50.50552 8.61534 37270 ft 460 kts 136°
2026-04-29 00:58 50.45906 8.68467 37270 ft 461 kts 136°
2026-04-29 00:58 50.41243 8.75408 37267 ft 463 kts 137°
2026-04-29 00:59 50.36557 8.82374 37262 ft 465 kts 135°
2026-04-29 00:59 50.32996 8.89612 37257 ft 466 kts 118°
2026-04-29 01:00 50.30265 8.98818 37256 ft 467 kts 113°
2026-04-29 01:00 50.27931 9.07139 37250 ft 469 kts 113°
2026-04-29 01:01 50.25266 9.16450 37237 ft 470 kts 114°
2026-04-29 01:01 50.22549 9.25766 37240 ft 471 kts 114°
2026-04-29 01:02 50.19814 9.35080 37244 ft 472 kts 114°
2026-04-29 01:02 50.17067 9.44401 37235 ft 473 kts 114°
2026-04-29 01:03 50.14315 9.53711 37228 ft 473 kts 114°
2026-04-29 01:03 50.11558 9.63008 37232 ft 472 kts 114°
2026-04-29 01:04 50.08801 9.72272 37232 ft 471 kts 114°
2026-04-29 01:04 50.05853 9.81373 37229 ft 471 kts 122°
2026-04-29 01:05 50.02256 9.89879 37233 ft 470 kts 124°
2026-04-29 01:05 49.98986 9.97368 37240 ft 470 kts 124°
2026-04-29 01:06 49.95345 10.05810 37240 ft 471 kts 124°
2026-04-29 01:06 49.91725 10.14282 37239 ft 471 kts 124°
2026-04-29 01:07 49.88131 10.22696 37243 ft 472 kts 124°
2026-04-29 01:07 49.84490 10.31189 37240 ft 473 kts 124°
2026-04-29 01:08 49.80838 10.39678 37239 ft 474 kts 124°
2026-04-29 01:08 49.77165 10.48184 37233 ft 476 kts 124°
2026-04-29 01:09 49.73479 10.56694 37234 ft 477 kts 124°
2026-04-29 01:09 49.69775 10.65217 37240 ft 479 kts 124°
2026-04-29 01:10 49.66054 10.73754 37239 ft 480 kts 124°
2026-04-29 01:10 49.62311 10.82312 37231 ft 481 kts 124°
2026-04-29 01:11 49.58554 10.90878 37218 ft 483 kts 125°
2026-04-29 01:11 49.54788 10.99440 37216 ft 484 kts 125°
2026-04-29 01:12 49.51198 11.08206 37210 ft 485 kts 118°
2026-04-29 01:12 49.48159 11.17479 37204 ft 486 kts 116°
2026-04-29 01:13 49.45510 11.25797 37221 ft 486 kts 116°
2026-04-29 01:13 49.42494 11.35087 37225 ft 487 kts 117°
2026-04-29 01:14 49.39428 11.44363 37227 ft 487 kts 117°
2026-04-29 01:14 49.36346 11.53612 37225 ft 487 kts 117°
2026-04-29 01:15 49.33256 11.62853 37216 ft 487 kts 117°
2026-04-29 01:15 49.30159 11.72089 37214 ft 487 kts 117°
2026-04-29 01:16 49.27056 11.81312 37209 ft 487 kts 117°
2026-04-29 01:16 49.23944 11.90525 37214 ft 487 kts 117°
2026-04-29 01:17 49.20827 11.99723 37214 ft 487 kts 117°
2026-04-29 01:17 49.17702 12.08911 37209 ft 487 kts 117°
2026-04-29 01:18 49.14568 12.18091 37210 ft 487 kts 117°
2026-04-29 01:18 49.09850 12.31852 37203 ft 488 kts 118°
2026-04-29 01:19 49.07033 12.40030 37195 ft 488 kts 118°
2026-04-29 01:19 49.04402 12.47649 37202 ft 489 kts 118°
2026-04-29 01:20 49.01227 12.56812 37202 ft 489 kts 118°
2026-04-29 01:20 48.98043 12.65967 37207 ft 490 kts 118°
2026-04-29 01:21 48.95191 12.74139 37196 ft 490 kts 118°
2026-04-29 01:21 48.91984 12.83299 37196 ft 490 kts 118°
2026-04-29 01:22 48.88772 12.92440 37198 ft 491 kts 118°
2026-04-29 01:22 48.85546 13.01592 37199 ft 492 kts 118°
2026-04-29 01:23 48.82309 13.10739 37193 ft 492 kts 118°
2026-04-29 01:23 48.79064 13.19879 37198 ft 492 kts 118°
2026-04-29 01:24 48.75812 13.29006 37195 ft 492 kts 118°
2026-04-29 01:24 48.72548 13.38134 37187 ft 493 kts 118°
2026-04-29 01:25 48.69278 13.47249 37181 ft 493 kts 118°
2026-04-29 01:25 48.66003 13.56349 37189 ft 493 kts 118°
2026-04-29 01:26 48.62543 13.65292 37196 ft 493 kts 122°
2026-04-29 01:26 48.58865 13.74031 37192 ft 493 kts 123°
2026-04-29 01:27 48.55173 13.82757 37206 ft 493 kts 123°
2026-04-29 01:27 48.51501 13.91512 37205 ft 494 kts 123°
2026-04-29 01:28 48.47865 14.00201 37207 ft 494 kts 123°
2026-04-29 01:28 48.44172 14.09012 37188 ft 494 kts 123°
2026-04-29 01:29 48.40912 14.16759 37193 ft 494 kts 123°
2026-04-29 01:29 48.37224 14.25494 37199 ft 495 kts 123°
2026-04-29 01:30 48.33528 14.34218 37186 ft 495 kts 123°
2026-04-29 01:30 48.30216 14.42012 37187 ft 495 kts 123°
2026-04-29 01:31 48.26509 14.50707 37190 ft 495 kts 123°
2026-04-29 01:31 48.23189 14.58475 37190 ft 495 kts 123°
2026-04-29 01:32 48.19462 14.67165 37194 ft 496 kts 124°
2026-04-29 01:32 48.15726 14.75849 37209 ft 496 kts 124°
2026-04-29 01:33 48.12443 14.83457 37208 ft 497 kts 124°
2026-04-29 01:33 48.08621 14.92288 37204 ft 497 kts 124°
2026-04-29 01:34 48.04851 15.00970 37202 ft 498 kts 124°
2026-04-29 01:34 48.01071 15.09650 37193 ft 499 kts 124°
2026-04-29 01:35 47.97282 15.18322 37212 ft 499 kts 124°
2026-04-29 01:35 47.93480 15.26998 37203 ft 500 kts 124°
2026-04-29 01:36 47.89663 15.35664 37206 ft 500 kts 126°
2026-04-29 01:36 47.85445 15.43890 37207 ft 500 kts 131°
2026-04-29 01:37 47.81022 15.51882 37211 ft 500 kts 131°
2026-04-29 01:37 47.76613 15.59892 37224 ft 500 kts 131°
2026-04-29 01:38 47.72240 15.67929 37226 ft 500 kts 130°
2026-04-29 01:38 47.67874 15.75974 37224 ft 500 kts 131°
2026-04-29 01:39 47.63498 15.84013 37216 ft 500 kts 131°
2026-04-29 01:39 47.59120 15.92024 37232 ft 500 kts 131°
2026-04-29 01:40 47.54738 16.00017 37219 ft 500 kts 131°
2026-04-29 01:40 47.50351 16.07994 37209 ft 501 kts 131°
2026-04-29 01:41 47.45978 16.15925 37214 ft 501 kts 131°
2026-04-29 01:41 47.41571 16.23892 37213 ft 501 kts 131°
2026-04-29 01:42 47.37155 16.31854 37201 ft 501 kts 131°
2026-04-29 01:42 47.32735 16.39803 37198 ft 502 kts 131°
2026-04-29 01:43 47.28303 16.47751 37191 ft 502 kts 131°
2026-04-29 01:43 47.24379 16.54871 37187 ft 502 kts 130°
2026-04-29 01:44 47.20007 16.62877 37183 ft 502 kts 130°
2026-04-29 01:44 47.15630 16.70866 37178 ft 502 kts 130°
2026-04-29 01:45 47.11244 16.78831 37171 ft 502 kts 130°
2026-04-29 01:45 47.06848 16.86785 37173 ft 502 kts 130°
2026-04-29 01:46 47.02444 16.94728 37168 ft 502 kts 130°
2026-04-29 01:46 46.98039 17.02650 37161 ft 502 kts 131°
2026-04-29 01:47 46.93626 17.10566 37166 ft 502 kts 131°
2026-04-29 01:47 46.89209 17.18467 37165 ft 502 kts 131°
2026-04-29 01:48 46.84785 17.26356 37160 ft 502 kts 131°
2026-04-29 01:48 46.80351 17.34241 37157 ft 502 kts 131°
2026-04-29 01:49 46.75915 17.42108 37156 ft 502 kts 131°
2026-04-29 01:49 46.71480 17.49951 37154 ft 501 kts 131°
2026-04-29 01:50 46.67070 17.57727 37153 ft 500 kts 131°
2026-04-29 01:50 46.62638 17.65523 37164 ft 500 kts 132°
2026-04-29 01:51 46.58257 17.73363 37158 ft 499 kts 130°
2026-04-29 01:51 46.54016 17.81347 37148 ft 499 kts 129°
2026-04-29 01:52 46.49793 17.89323 37153 ft 497 kts 130°
2026-04-29 01:52 46.45561 17.97236 37145 ft 496 kts 130°
2026-04-29 01:53 46.41319 18.05108 37148 ft 495 kts 131°
2026-04-29 01:53 46.37082 18.12945 37147 ft 493 kts 131°
2026-04-29 01:54 46.32853 18.20748 37147 ft 493 kts 131°
2026-04-29 01:54 46.28626 18.28528 37142 ft 492 kts 131°
2026-04-29 01:55 46.24383 18.36314 37141 ft 492 kts 131°
2026-04-29 01:55 46.20143 18.44074 37138 ft 492 kts 131°
2026-04-29 01:56 46.15893 18.51831 37147 ft 493 kts 131°
2026-04-29 01:56 46.11631 18.59589 37137 ft 494 kts 131°
2026-04-29 01:57 46.07354 18.67352 37141 ft 495 kts 131°
2026-04-29 01:57 46.03060 18.75125 37146 ft 496 kts 131°
2026-04-29 01:58 45.98753 18.82902 37142 ft 498 kts 131°
2026-04-29 01:58 45.94425 18.90696 37143 ft 499 kts 131°
2026-04-29 01:59 45.89809 18.98006 37145 ft 496 kts 139°
2026-04-29 01:59 45.84829 19.04872 37134 ft 497 kts 140°
2026-04-29 02:00 45.79824 19.11705 37128 ft 497 kts 140°
2026-04-29 02:00 45.74843 19.18590 37134 ft 498 kts 139°
2026-04-29 02:01 45.69879 19.25496 37127 ft 497 kts 139°
2026-04-29 02:01 45.64920 19.32394 37139 ft 498 kts 139°
2026-04-29 02:02 45.59955 19.39276 37126 ft 497 kts 139°
2026-04-29 02:02 45.54991 19.46134 37128 ft 496 kts 140°
2026-04-29 02:03 45.50028 19.52972 37132 ft 495 kts 140°
2026-04-29 02:03 45.45071 19.59785 37131 ft 495 kts 140°
2026-04-29 02:04 45.40118 19.66575 37131 ft 494 kts 140°
2026-04-29 02:04 45.35158 19.73356 37131 ft 494 kts 140°
2026-04-29 02:05 45.30200 19.80117 37133 ft 494 kts 140°
2026-04-29 02:05 45.25233 19.86874 37134 ft 494 kts 140°
2026-04-29 02:06 45.20264 19.93616 37131 ft 495 kts 140°
2026-04-29 02:06 45.16124 19.99220 37131 ft 495 kts 140°
2026-04-29 02:07 45.11137 20.05955 37132 ft 496 kts 140°
2026-04-29 02:07 45.06140 20.12688 37131 ft 496 kts 140°
2026-04-29 02:08 45.01135 20.19413 37132 ft 497 kts 140°
2026-04-29 02:08 44.96124 20.26129 37131 ft 497 kts 140°
2026-04-29 02:09 44.91101 20.32844 37130 ft 497 kts 140°
2026-04-29 02:09 44.86077 20.39544 37130 ft 497 kts 140°
2026-04-29 02:10 44.81065 20.46211 37126 ft 497 kts 140°
2026-04-29 02:10 44.76037 20.52883 37131 ft 496 kts 140°
2026-04-29 02:11 44.71004 20.59544 37130 ft 496 kts 140°
2026-04-29 02:11 44.66011 20.66136 37117 ft 495 kts 140°
2026-04-29 02:12 44.60962 20.72786 37124 ft 494 kts 140°
2026-04-29 02:12 44.55980 20.79330 37134 ft 493 kts 140°
2026-04-29 02:13 44.50942 20.85932 37111 ft 493 kts 140°
2026-04-29 02:13 44.45971 20.92429 37117 ft 492 kts 140°
2026-04-29 02:14 44.40969 20.98952 37120 ft 491 kts 140°
2026-04-29 02:14 44.35961 21.05467 37114 ft 491 kts 140°
2026-04-29 02:15 44.30960 21.11955 37114 ft 490 kts 140°
2026-04-29 02:15 44.25956 21.18433 37118 ft 490 kts 140°
2026-04-29 02:16 44.20950 21.24897 37114 ft 490 kts 140°
2026-04-29 02:16 44.15941 21.31349 37118 ft 491 kts 140°
2026-04-29 02:17 44.10932 21.37786 37113 ft 491 kts 140°
2026-04-29 02:17 44.05906 21.44229 37111 ft 491 kts 140°
2026-04-29 02:18 44.00879 21.50658 37114 ft 491 kts 140°
2026-04-29 02:18 43.95847 21.57079 37107 ft 491 kts 140°
2026-04-29 02:19 43.90814 21.63484 37108 ft 492 kts 140°
2026-04-29 02:19 43.85764 21.69895 37108 ft 492 kts 140°
2026-04-29 02:20 43.80726 21.76277 37108 ft 491 kts 140°
2026-04-29 02:20 43.75682 21.82651 37102 ft 491 kts 140°
2026-04-29 02:21 43.70672 21.88966 37100 ft 491 kts 141°
2026-04-29 02:21 43.65624 21.95315 37106 ft 490 kts 141°
2026-04-29 02:22 43.60577 22.01648 37112 ft 490 kts 141°
2026-04-29 02:22 43.55530 22.07965 37108 ft 489 kts 141°
2026-04-29 02:23 43.50461 22.14294 37110 ft 488 kts 141°
2026-04-29 02:23 43.45456 22.20530 37111 ft 488 kts 141°
2026-04-29 02:24 43.40429 22.26778 37106 ft 487 kts 141°
2026-04-29 02:25 43.32886 22.36126 37093 ft 486 kts 141°
2026-04-29 02:25 43.27862 22.42334 37100 ft 485 kts 141°
2026-04-29 02:26 43.22844 22.48520 37102 ft 485 kts 141°
2026-04-29 02:26 43.17818 22.54702 37105 ft 485 kts 141°
2026-04-29 02:27 43.12793 22.60869 37108 ft 485 kts 141°
2026-04-29 02:27 43.07769 22.67021 37103 ft 485 kts 141°
2026-04-29 02:28 43.02736 22.73171 37109 ft 485 kts 141°
2026-04-29 02:28 42.97700 22.79311 37107 ft 485 kts 141°
2026-04-29 02:29 42.92723 22.85553 37106 ft 486 kts 139°
2026-04-29 02:29 42.87808 22.91892 37105 ft 486 kts 139°
2026-04-29 02:30 42.82893 22.98212 37099 ft 485 kts 140°
2026-04-29 02:30 42.77969 23.04493 37105 ft 484 kts 140°
2026-04-29 02:31 42.73051 23.10741 37117 ft 484 kts 140°
2026-04-29 02:31 42.68131 23.16975 37121 ft 483 kts 140°
2026-04-29 02:32 42.63213 23.23195 37129 ft 483 kts 140°
2026-04-29 02:32 42.58301 23.29395 37122 ft 483 kts 140°
2026-04-29 02:33 42.53374 23.35598 37117 ft 482 kts 140°
2026-04-29 02:33 42.48466 23.41765 37120 ft 482 kts 140°
2026-04-29 02:34 42.43539 23.47941 37109 ft 482 kts 140°
2026-04-29 02:34 42.38625 23.54088 37109 ft 481 kts 140°
2026-04-29 02:35 42.33705 23.60231 37117 ft 482 kts 140°
2026-04-29 02:35 42.28803 23.66326 37113 ft 482 kts 141°
2026-04-29 02:36 42.23829 23.72392 37126 ft 482 kts 141°
2026-04-29 02:36 42.18833 23.78443 37120 ft 483 kts 141°
2026-04-29 02:37 42.13841 23.84488 37109 ft 483 kts 141°
2026-04-29 02:37 42.08847 23.90532 37119 ft 483 kts 141°
2026-04-29 02:38 42.04387 23.95922 37124 ft 483 kts 141°
2026-04-29 02:38 41.99386 24.01952 37141 ft 483 kts 141°
2026-04-29 02:39 41.94370 24.07986 37121 ft 484 kts 141°
2026-04-29 02:39 41.89349 24.14014 37123 ft 484 kts 141°
2026-04-29 02:40 41.84328 24.20027 37121 ft 484 kts 141°
2026-04-29 02:40 41.79299 24.26038 37140 ft 483 kts 141°
2026-04-29 02:41 41.74276 24.32028 37137 ft 483 kts 141°
2026-04-29 02:41 41.69254 24.38004 37130 ft 483 kts 141°
2026-04-29 02:42 41.64229 24.43970 37140 ft 483 kts 141°
2026-04-29 02:42 41.59201 24.49928 37122 ft 483 kts 141°
2026-04-29 02:43 41.54211 24.55829 37136 ft 482 kts 141°
2026-04-29 02:43 41.49199 24.61742 37140 ft 481 kts 141°
2026-04-29 02:44 41.44191 24.67640 37144 ft 480 kts 141°
2026-04-29 02:44 41.39253 24.73645 37143 ft 481 kts 138°
2026-04-29 02:45 41.34481 24.79918 37139 ft 482 kts 137°
2026-04-29 02:45 41.29729 24.86212 37132 ft 481 kts 137°
2026-04-29 02:46 41.24955 24.92466 37123 ft 481 kts 138°
2026-04-29 02:46 41.20167 24.98687 37126 ft 483 kts 138°
2026-04-29 02:47 41.15351 25.04921 37124 ft 484 kts 138°
2026-04-29 02:47 41.10530 25.11153 37128 ft 484 kts 138°
2026-04-29 02:48 41.05696 25.17389 37122 ft 485 kts 138°
2026-04-29 02:48 41.00858 25.23618 37124 ft 485 kts 138°
2026-04-29 02:49 40.96013 25.29842 37120 ft 485 kts 138°
2026-04-29 02:49 40.91167 25.36055 37121 ft 485 kts 138°
2026-04-29 02:50 40.86322 25.42251 37120 ft 484 kts 138°
2026-04-29 02:50 40.81519 25.48382 37117 ft 483 kts 138°
2026-04-29 02:51 40.76688 25.54536 37125 ft 482 kts 138°
2026-04-29 02:51 40.71864 25.60667 37122 ft 481 kts 138°
2026-04-29 02:52 40.67044 25.66780 37122 ft 480 kts 138°
2026-04-29 02:52 40.62230 25.72874 37122 ft 480 kts 138°
2026-04-29 02:53 40.57422 25.78946 37123 ft 479 kts 138°
2026-04-29 02:53 40.52613 25.85010 37121 ft 479 kts 138°
2026-04-29 02:54 40.47916 25.91205 37120 ft 480 kts 134°
2026-04-29 02:54 40.44259 25.96682 37127 ft 480 kts 132°
2026-04-29 02:55 40.39175 26.04441 37124 ft 480 kts 132°
2026-04-29 02:55 40.35520 26.09933 37124 ft 481 kts 133°
2026-04-29 02:56 40.31103 26.16507 37126 ft 481 kts 133°
2026-04-29 02:56 40.26670 26.23081 37125 ft 481 kts 133°
2026-04-29 02:57 40.22229 26.29658 37131 ft 482 kts 133°
2026-04-29 02:57 40.17790 26.36221 37131 ft 482 kts 133°
2026-04-29 02:58 40.13342 26.42772 37130 ft 482 kts 134°
2026-04-29 02:58 40.08640 26.49013 37127 ft 481 kts 137°
2026-04-29 02:59 40.03823 26.55062 37135 ft 481 kts 138°
2026-04-29 02:59 39.99019 26.61139 37128 ft 481 kts 137°
2026-04-29 03:00 39.94238 26.67238 37127 ft 481 kts 137°
2026-04-29 03:00 39.89466 26.73330 37130 ft 481 kts 137°
2026-04-29 03:01 39.84685 26.79416 37123 ft 481 kts 137°
2026-04-29 03:01 39.82315 26.82427 36776 ft 467 kts 136°
2026-04-29 03:01 39.80064 26.85288 36843 ft 449 kts 136°
2026-04-29 03:01 39.77866 26.88075 36890 ft 436 kts 136°
2026-04-29 03:02 39.75693 26.90814 36943 ft 436 kts 136°
2026-04-29 03:02 39.71243 26.96290 36999 ft 445 kts 137°
2026-04-29 03:03 39.66700 27.01846 37006 ft 450 kts 137°
2026-04-29 03:03 39.62143 27.07429 37000 ft 452 kts 137°
2026-04-29 03:04 39.57566 27.13033 37000 ft 452 kts 137°
2026-04-29 03:04 39.53002 27.18614 37001 ft 451 kts 137°
2026-04-29 03:05 39.48545 27.24320 36997 ft 450 kts 130°
2026-04-29 03:05 39.44612 27.30589 36997 ft 448 kts 129°
2026-04-29 03:06 39.40737 27.36825 37000 ft 447 kts 129°
2026-04-29 03:06 39.36766 27.43053 36999 ft 446 kts 130°
2026-04-29 03:07 39.32839 27.49166 37003 ft 444 kts 130°
2026-04-29 03:07 39.28891 27.55301 37001 ft 444 kts 130°
2026-04-29 03:08 39.24946 27.61426 37003 ft 443 kts 130°
2026-04-29 03:08 39.21000 27.67542 37002 ft 443 kts 130°
2026-04-29 03:09 39.17048 27.73657 37002 ft 444 kts 130°
2026-04-29 03:09 39.13087 27.79774 37003 ft 445 kts 130°
2026-04-29 03:10 39.09117 27.85894 37001 ft 446 kts 130°
2026-04-29 03:10 39.05143 27.92002 37003 ft 446 kts 130°
2026-04-29 03:11 39.01141 27.98136 37003 ft 447 kts 130°
2026-04-29 03:11 38.97146 28.04254 37003 ft 448 kts 130°
2026-04-29 03:12 38.93132 28.10388 37002 ft 448 kts 130°
2026-04-29 03:12 38.89120 28.16509 37002 ft 448 kts 130°
2026-04-29 03:13 38.85099 28.22632 37000 ft 448 kts 130°
2026-04-29 03:13 38.81106 28.28701 37003 ft 448 kts 130°
2026-04-29 03:14 38.77060 28.34838 37000 ft 448 kts 130°
2026-04-29 03:14 38.73040 28.40925 37001 ft 447 kts 130°
2026-04-29 03:15 38.69026 28.46991 37002 ft 447 kts 130°
2026-04-29 03:15 38.65034 28.53014 37000 ft 446 kts 130°
2026-04-29 03:16 38.61020 28.59059 37002 ft 446 kts 130°
2026-04-29 03:16 38.56994 28.65068 36991 ft 441 kts 132°
2026-04-29 03:16 38.54961 28.67904 36979 ft 426 kts 133°
2026-04-29 03:17 38.52958 28.70610 36978 ft 412 kts 134°
2026-04-29 03:17 38.51007 28.73223 36979 ft 399 kts 134°
2026-04-29 03:17 38.49126 28.75748 36977 ft 386 kts 134°
2026-04-29 03:18 38.45446 28.80718 37016 ft 390 kts 134°
2026-04-29 03:18 38.41672 28.85838 37021 ft 402 kts 133°
2026-04-29 03:19 38.37802 28.91094 37011 ft 409 kts 133°
2026-04-29 03:19 38.33903 28.96382 36998 ft 408 kts 133°
2026-04-29 03:20 38.30070 29.01572 36990 ft 398 kts 134°
2026-04-29 03:20 38.26265 29.06715 37009 ft 399 kts 134°
2026-04-29 03:21 38.22446 29.11869 37008 ft 401 kts 134°
2026-04-29 03:21 38.18613 29.17034 37008 ft 403 kts 134°
2026-04-29 03:22 38.14762 29.22214 37006 ft 404 kts 134°
2026-04-29 03:22 38.10889 29.27418 37003 ft 405 kts 134°
2026-04-29 03:23 38.07012 29.32615 37000 ft 405 kts 134°
2026-04-29 03:23 38.03155 29.37827 37002 ft 405 kts 133°
2026-04-29 03:24 37.99309 29.43039 36997 ft 404 kts 133°
2026-04-29 03:24 37.95472 29.48229 36998 ft 403 kts 133°
2026-04-29 03:25 37.91645 29.53393 36999 ft 401 kts 133°
2026-04-29 03:25 37.87824 29.58540 37001 ft 400 kts 134°
2026-04-29 03:26 37.84015 29.63664 37000 ft 399 kts 134°
2026-04-29 03:26 37.80215 29.68767 37000 ft 398 kts 134°
2026-04-29 03:27 37.76365 29.73801 37001 ft 398 kts 135°
2026-04-29 03:27 37.72442 29.78717 37002 ft 398 kts 135°
2026-04-29 03:28 37.68516 29.83638 37005 ft 398 kts 135°
2026-04-29 03:28 37.64586 29.88581 37001 ft 399 kts 135°
2026-04-29 03:29 37.60685 29.93488 37003 ft 399 kts 135°
2026-04-29 03:29 37.56743 29.98438 37001 ft 400 kts 135°
2026-04-29 03:30 37.52817 30.03409 37002 ft 401 kts 135°
2026-04-29 03:30 37.48902 30.08417 37002 ft 402 kts 135°
2026-04-29 03:31 37.43035 30.15914 36997 ft 400 kts 135°
2026-04-29 03:31 37.39133 30.20897 37002 ft 399 kts 135°
2026-04-29 03:32 37.35241 30.25864 37001 ft 399 kts 135°
2026-04-29 03:32 37.31342 30.30838 37000 ft 399 kts 135°
2026-04-29 03:33 37.27448 30.35803 37003 ft 399 kts 135°
2026-04-29 03:33 37.23553 30.40766 37000 ft 399 kts 135°
2026-04-29 03:34 37.19653 30.45733 37002 ft 400 kts 135°
2026-04-29 03:34 37.15752 30.50700 37000 ft 400 kts 135°
2026-04-29 03:35 37.11867 30.55642 37004 ft 400 kts 135°
2026-04-29 03:35 37.07959 30.60612 37001 ft 400 kts 135°
2026-04-29 03:36 37.04052 30.65577 37001 ft 401 kts 135°
2026-04-29 03:36 37.00143 30.70543 37002 ft 401 kts 135°
2026-04-29 03:37 36.96227 30.75515 37001 ft 401 kts 135°
2026-04-29 03:37 36.92311 30.80484 37001 ft 401 kts 135°
2026-04-29 03:38 36.88396 30.85451 37002 ft 401 kts 135°
2026-04-29 03:38 36.84478 30.90417 37001 ft 401 kts 135°
2026-04-29 03:39 36.80566 30.95374 37001 ft 401 kts 135°
2026-04-29 03:39 36.76659 31.00322 37001 ft 401 kts 135°
2026-04-29 03:40 36.72747 31.05273 37001 ft 400 kts 135°
2026-04-29 03:40 36.68838 31.10218 37001 ft 400 kts 135°
2026-04-29 03:41 36.64930 31.15160 37001 ft 400 kts 135°
2026-04-29 03:41 36.61031 31.20088 37001 ft 400 kts 135°
2026-04-29 03:42 36.57126 31.25021 37001 ft 400 kts 135°
2026-04-29 03:42 36.53224 31.29947 37001 ft 400 kts 135°
2026-04-29 03:43 36.49321 31.34873 37002 ft 400 kts 135°
2026-04-29 03:43 36.45416 31.39798 37002 ft 400 kts 135°
2026-04-29 03:44 36.41545 31.44679 37002 ft 400 kts 135°
2026-04-29 03:44 36.37638 31.49602 37002 ft 400 kts 135°
2026-04-29 03:45 36.34366 31.53723 37002 ft 400 kts 135°
2026-04-29 03:45 36.30460 31.58640 37002 ft 400 kts 135°
2026-04-29 03:46 36.26579 31.63524 37002 ft 400 kts 135°
2026-04-29 03:46 36.22665 31.68445 37002 ft 401 kts 135°
2026-04-29 03:47 36.18758 31.73356 37002 ft 401 kts 135°
2026-04-29 03:47 36.14817 31.78308 37002 ft 401 kts 135°
2026-04-29 03:48 36.10935 31.83183 37001 ft 401 kts 135°
2026-04-29 03:48 36.07020 31.88096 37001 ft 401 kts 135°
2026-04-29 03:49 36.03112 31.92999 37001 ft 401 kts 135°
2026-04-29 03:49 35.99196 31.97909 37001 ft 401 kts 135°
2026-04-29 03:50 35.95289 32.02806 37001 ft 401 kts 135°
2026-04-29 03:50 35.91375 32.07708 37001 ft 400 kts 135°
2026-04-29 03:51 35.87467 32.12601 37001 ft 400 kts 135°
2026-04-29 03:51 35.83560 32.17490 37001 ft 400 kts 135°
2026-04-29 03:52 35.79652 32.22378 37001 ft 400 kts 135°
2026-04-29 03:52 35.75750 32.27257 37001 ft 400 kts 135°
2026-04-29 03:53 35.71848 32.32133 37001 ft 400 kts 135°
2026-04-29 03:53 35.67940 32.37013 37001 ft 400 kts 135°
2026-04-29 03:54 35.64034 32.41889 37001 ft 400 kts 135°
2026-04-29 03:54 35.60132 32.46758 37001 ft 400 kts 135°
2026-04-29 03:55 35.56227 32.51628 37001 ft 400 kts 135°
2026-04-29 03:55 35.52316 32.56503 37001 ft 400 kts 135°
2026-04-29 03:56 35.48412 32.61367 37002 ft 400 kts 135°
2026-04-29 03:56 35.44505 32.66233 37002 ft 400 kts 135°
2026-04-29 03:57 35.40598 32.71095 37002 ft 400 kts 135°
2026-04-29 03:57 35.36687 32.75961 37002 ft 400 kts 135°
2026-04-29 03:58 35.32774 32.80826 37002 ft 401 kts 135°
2026-04-29 03:58 35.28869 32.85680 37002 ft 401 kts 135°
2026-04-29 03:59 35.24958 32.90538 37002 ft 401 kts 135°
2026-04-29 03:59 35.21048 32.95393 37002 ft 401 kts 135°
2026-04-29 04:00 35.17134 33.00251 37001 ft 401 kts 135°
2026-04-29 04:00 35.13222 33.05104 37001 ft 401 kts 135°
2026-04-29 04:01 35.09335 33.09923 37001 ft 401 kts 135°
2026-04-29 04:01 35.05402 33.14797 37001 ft 400 kts 135°
2026-04-29 04:02 35.01523 33.19602 37001 ft 400 kts 135°
2026-04-29 04:02 34.97614 33.24442 37001 ft 400 kts 135°
2026-04-29 04:03 34.93702 33.29283 37002 ft 400 kts 135°
2026-04-29 04:03 34.89795 33.34116 37001 ft 400 kts 135°
2026-04-29 04:04 34.85890 33.38944 37002 ft 400 kts 135°
2026-04-29 04:04 34.81984 33.43770 37001 ft 400 kts 135°
2026-04-29 04:05 34.78075 33.48598 37001 ft 400 kts 135°
2026-04-29 04:05 34.74167 33.53423 37001 ft 400 kts 135°
2026-04-29 04:06 34.70261 33.58243 37002 ft 400 kts 135°
2026-04-29 04:06 34.66353 33.63064 37001 ft 400 kts 135°
2026-04-29 04:07 34.62446 33.67879 37001 ft 400 kts 135°
2026-04-29 04:07 34.58538 33.72695 37001 ft 400 kts 135°
2026-04-29 04:08 34.54632 33.77507 37001 ft 400 kts 135°
2026-04-29 04:08 34.50753 33.82282 37001 ft 400 kts 135°
2026-04-29 04:09 34.46844 33.87093 37001 ft 400 kts 135°
2026-04-29 04:09 34.42937 33.91898 37001 ft 400 kts 135°
2026-04-29 04:10 34.39032 33.96699 37001 ft 400 kts 135°
2026-04-29 04:10 34.35126 34.01498 37001 ft 400 kts 135°
2026-04-29 04:11 34.31214 34.06302 37001 ft 400 kts 135°
2026-04-29 04:11 34.27305 34.11102 37001 ft 400 kts 135°
2026-04-29 04:12 34.23401 34.15893 37001 ft 400 kts 135°
2026-04-29 04:12 34.19486 34.20694 37001 ft 400 kts 135°
2026-04-29 04:13 34.15578 34.25485 37001 ft 400 kts 135°
2026-04-29 04:13 34.11669 34.30275 37001 ft 400 kts 135°
2026-04-29 04:14 34.07763 34.35059 37001 ft 400 kts 135°
2026-04-29 04:14 34.03854 34.39844 37001 ft 400 kts 135°
2026-04-29 04:15 33.99944 34.44630 37001 ft 400 kts 135°
2026-04-29 04:15 33.96033 34.49413 37001 ft 400 kts 135°
2026-04-29 04:16 33.92123 34.54193 37001 ft 400 kts 135°
2026-04-29 04:16 33.88218 34.58965 37001 ft 400 kts 135°
2026-04-29 04:17 33.84309 34.63739 37001 ft 400 kts 135°
2026-04-29 04:17 33.80402 34.68510 37001 ft 400 kts 135°
2026-04-29 04:18 33.76521 34.73245 37001 ft 400 kts 135°
2026-04-29 04:18 33.72613 34.78013 37001 ft 400 kts 135°
2026-04-29 04:19 33.68708 34.82773 37001 ft 400 kts 135°
2026-04-29 04:19 33.64800 34.87536 37001 ft 400 kts 135°
2026-04-29 04:20 33.60893 34.92295 37001 ft 400 kts 135°
2026-04-29 04:20 33.56981 34.97058 37001 ft 400 kts 135°
2026-04-29 04:21 33.53076 35.01811 37001 ft 400 kts 135°
2026-04-29 04:21 33.49165 35.06568 37001 ft 400 kts 135°
2026-04-29 04:22 33.45260 35.11317 37001 ft 400 kts 135°
2026-04-29 04:22 33.41349 35.16069 37001 ft 400 kts 135°
2026-04-29 04:23 33.37444 35.20813 37001 ft 400 kts 135°
2026-04-29 04:23 33.33534 35.25562 37002 ft 400 kts 135°
2026-04-29 04:24 33.29628 35.30302 37001 ft 401 kts 135°
2026-04-29 04:24 33.25713 35.35051 37002 ft 401 kts 135°
2026-04-29 04:25 33.21804 35.39792 37002 ft 401 kts 135°
2026-04-29 04:25 33.17894 35.44531 37000 ft 401 kts 135°
2026-04-29 04:26 33.13977 35.49276 37002 ft 401 kts 135°
2026-04-29 04:26 33.10063 35.54015 37001 ft 401 kts 135°
2026-04-29 04:27 33.06158 35.58743 37001 ft 401 kts 135°
2026-04-29 04:27 33.02246 35.63476 37002 ft 400 kts 135°
2026-04-29 04:28 32.98337 35.68204 37001 ft 400 kts 135°
2026-04-29 04:28 32.94427 35.72931 37001 ft 400 kts 135°
2026-04-29 04:29 32.90524 35.77647 37001 ft 400 kts 135°
2026-04-29 04:29 32.86640 35.82338 37001 ft 400 kts 135°
2026-04-29 04:30 32.82712 35.87079 37002 ft 400 kts 135°
2026-04-29 04:31 32.76881 35.94116 37001 ft 400 kts 135°
2026-04-29 04:31 32.72976 35.98825 37001 ft 400 kts 135°
2026-04-29 04:32 32.69070 36.03533 37000 ft 400 kts 135°
2026-04-29 04:32 32.65796 36.07478 37002 ft 400 kts 135°
2026-04-29 04:33 32.61892 36.12180 37001 ft 400 kts 135°
2026-04-29 04:33 32.58009 36.16855 37001 ft 400 kts 135°
2026-04-29 04:34 32.54079 36.21585 37001 ft 400 kts 135°
2026-04-29 04:34 32.50196 36.26255 37001 ft 400 kts 135°
2026-04-29 04:35 32.46289 36.30953 37002 ft 400 kts 135°
2026-04-29 04:35 32.42360 36.35676 37001 ft 400 kts 135°
2026-04-29 04:36 32.38479 36.40338 37001 ft 400 kts 135°
2026-04-29 04:36 32.34572 36.45029 37002 ft 400 kts 135°
2026-04-29 04:37 32.30665 36.49719 37001 ft 400 kts 135°
2026-04-29 04:37 32.26756 36.54408 37000 ft 400 kts 135°
2026-04-29 04:38 32.22848 36.59094 37001 ft 400 kts 135°
2026-04-29 04:38 32.18935 36.63786 37001 ft 401 kts 135°
2026-04-29 04:39 32.15024 36.68472 37002 ft 401 kts 135°
2026-04-29 04:39 32.11113 36.73156 37001 ft 401 kts 135°
2026-04-29 04:40 32.07207 36.77832 37001 ft 401 kts 135°
2026-04-29 04:40 32.03296 36.82512 37002 ft 400 kts 135°
2026-04-29 04:41 31.99384 36.87192 37001 ft 401 kts 135°
2026-04-29 04:41 31.95477 36.91863 37001 ft 400 kts 135°
2026-04-29 04:42 31.91566 36.96537 37001 ft 400 kts 135°
2026-04-29 04:42 31.87660 37.01204 37001 ft 400 kts 135°
2026-04-29 04:43 31.83755 37.05866 37002 ft 400 kts 135°
2026-04-29 04:43 31.79847 37.10531 37001 ft 400 kts 135°
2026-04-29 04:44 31.75961 37.15167 37003 ft 400 kts 135°
2026-04-29 04:44 31.72054 37.19827 37000 ft 400 kts 135°
2026-04-29 04:45 31.68148 37.24483 37001 ft 400 kts 135°
2026-04-29 04:45 31.64243 37.29136 37001 ft 400 kts 135°
2026-04-29 04:46 31.60337 37.33789 37000 ft 400 kts 135°
2026-04-29 04:46 31.56434 37.38436 37002 ft 400 kts 135°
2026-04-29 04:47 31.52520 37.43094 37001 ft 400 kts 135°
2026-04-29 04:47 31.48614 37.47741 37001 ft 400 kts 135°
2026-04-29 04:48 31.44712 37.52381 37001 ft 400 kts 135°
2026-04-29 04:48 31.40801 37.57029 37001 ft 400 kts 135°
2026-04-29 04:49 31.36890 37.61676 37002 ft 400 kts 135°
2026-04-29 04:49 31.32980 37.66320 37002 ft 400 kts 135°
2026-04-29 04:50 31.29075 37.70956 37003 ft 401 kts 135°
2026-04-29 04:50 31.25162 37.75600 37002 ft 401 kts 135°
2026-04-29 04:51 31.21250 37.80240 37001 ft 401 kts 135°
2026-04-29 04:51 31.17365 37.84846 37002 ft 401 kts 135°
2026-04-29 04:52 31.13455 37.89480 37001 ft 401 kts 135°
2026-04-29 04:52 31.09550 37.94106 37002 ft 400 kts 135°
2026-04-29 04:53 31.05636 37.98741 37000 ft 400 kts 135°
2026-04-29 04:53 31.01728 38.03366 37002 ft 400 kts 135°
2026-04-29 04:54 30.97825 38.07985 37001 ft 400 kts 135°
2026-04-29 04:54 30.93912 38.12613 37001 ft 400 kts 135°
2026-04-29 04:55 30.90006 38.17230 37001 ft 400 kts 135°
2026-04-29 04:55 30.86100 38.21847 37001 ft 400 kts 135°
2026-04-29 04:56 30.82197 38.26458 37002 ft 400 kts 135°
2026-04-29 04:56 30.78292 38.31069 37001 ft 400 kts 135°
2026-04-29 04:57 30.74386 38.35679 37003 ft 400 kts 135°
2026-04-29 04:57 30.70481 38.40287 37000 ft 400 kts 135°
2026-04-29 04:58 30.66578 38.44890 37002 ft 400 kts 135°
2026-04-29 04:58 30.62669 38.49499 37001 ft 400 kts 135°
2026-04-29 04:59 30.58762 38.54103 37001 ft 400 kts 135°
2026-04-29 04:59 30.54853 38.58707 37002 ft 400 kts 135°
2026-04-29 05:00 30.50945 38.63309 37001 ft 400 kts 135°
2026-04-29 05:00 30.47035 38.67910 37001 ft 400 kts 135°
2026-04-29 05:01 30.43155 38.72476 37003 ft 400 kts 135°
2026-04-29 05:01 30.39246 38.77073 37000 ft 401 kts 135°
2026-04-29 05:02 30.35337 38.81668 37003 ft 401 kts 135°
2026-04-29 05:02 30.31425 38.86265 37002 ft 401 kts 135°
2026-04-29 05:03 30.27513 38.90861 37000 ft 401 kts 135°
2026-04-29 05:03 30.23603 38.95453 37001 ft 401 kts 135°
2026-04-29 05:04 30.19694 39.00041 37001 ft 400 kts 135°
2026-04-29 05:04 30.15783 39.04629 37002 ft 400 kts 135°
2026-04-29 05:05 30.11874 39.09213 37000 ft 400 kts 135°
2026-04-29 05:05 30.07966 39.13795 37000 ft 400 kts 135°
2026-04-29 05:06 30.04061 39.18371 37002 ft 400 kts 135°
2026-04-29 05:06 30.00153 39.22948 37002 ft 400 kts 135°
2026-04-29 05:07 29.96245 39.27524 37001 ft 400 kts 135°
2026-04-29 05:07 29.92343 39.32092 37002 ft 400 kts 135°
2026-04-29 05:08 29.88438 39.36661 37001 ft 400 kts 135°
2026-04-29 05:08 29.84530 39.41231 37002 ft 400 kts 135°
2026-04-29 05:09 29.80644 39.45774 37000 ft 400 kts 135°
2026-04-29 05:09 29.76740 39.50336 37003 ft 400 kts 135°
2026-04-29 05:10 29.72830 39.54905 37000 ft 400 kts 135°
2026-04-29 05:10 29.68923 39.59466 37001 ft 400 kts 135°
2026-04-29 05:11 29.65017 39.64026 37000 ft 400 kts 135°
2026-04-29 05:11 29.61110 39.68585 37002 ft 400 kts 135°
2026-04-29 05:12 29.57201 39.73144 37001 ft 400 kts 135°
2026-04-29 05:12 29.53295 39.77699 37001 ft 400 kts 135°
2026-04-29 05:13 29.49382 39.82258 37001 ft 400 kts 135°
2026-04-29 05:13 29.45478 39.86807 37002 ft 400 kts 135°
2026-04-29 05:14 29.41572 39.91357 37001 ft 400 kts 135°
2026-04-29 05:14 29.37685 39.95881 37001 ft 400 kts 135°
2026-04-29 05:15 29.33782 40.00424 37002 ft 400 kts 135°
2026-04-29 05:15 29.29868 40.04976 37001 ft 400 kts 135°
2026-04-29 05:16 29.25962 40.09518 37001 ft 400 kts 135°
2026-04-29 05:16 29.22049 40.14067 37001 ft 400 kts 135°
2026-04-29 05:17 29.18140 40.18609 37001 ft 400 kts 135°
2026-04-29 05:17 29.14232 40.23147 37001 ft 400 kts 135°
2026-04-29 05:18 29.10325 40.27683 37002 ft 400 kts 135°
2026-04-29 05:18 29.06411 40.32225 37001 ft 400 kts 135°
2026-04-29 05:19 29.02506 40.36756 37002 ft 400 kts 135°
2026-04-29 05:19 28.98596 40.41290 37000 ft 400 kts 135°
2026-04-29 05:20 28.94691 40.45817 37002 ft 400 kts 135°
2026-04-29 05:20 28.90779 40.50351 37001 ft 400 kts 135°
2026-04-29 05:21 28.86874 40.54874 37001 ft 400 kts 135°
2026-04-29 05:21 28.83627 40.58634 37001 ft 400 kts 135°
2026-04-29 05:22 28.79722 40.63155 37001 ft 400 kts 135°
2026-04-29 05:22 28.75176 40.68415 37002 ft 400 kts 135°
2026-04-29 05:23 28.71903 40.72201 37001 ft 400 kts 135°
2026-04-29 05:23 28.67997 40.76717 37002 ft 400 kts 135°
2026-04-29 05:24 28.64087 40.81237 37001 ft 400 kts 135°
2026-04-29 05:24 28.60180 40.85751 37001 ft 400 kts 135°
2026-04-29 05:25 28.56272 40.90265 37001 ft 400 kts 135°
2026-04-29 05:25 28.52363 40.94778 37002 ft 400 kts 135°
2026-04-29 05:26 28.48454 40.99290 37001 ft 400 kts 135°
2026-04-29 05:26 28.44547 41.03797 37001 ft 400 kts 135°
2026-04-29 05:27 28.40643 41.08300 37001 ft 400 kts 135°
2026-04-29 05:27 28.34777 41.15062 37002 ft 400 kts 135°
2026-04-29 05:28 28.30869 41.19565 37001 ft 400 kts 135°
2026-04-29 05:28 28.26957 41.24070 37001 ft 400 kts 135°
2026-04-29 05:29 28.23074 41.28542 37001 ft 400 kts 135°
2026-04-29 05:29 28.19165 41.33041 37000 ft 400 kts 135°
2026-04-29 05:30 28.15256 41.37538 37002 ft 400 kts 135°
2026-04-29 05:30 28.11346 41.42036 37001 ft 400 kts 135°
2026-04-29 05:31 28.07417 41.46552 37001 ft 400 kts 135°
2026-04-29 05:31 28.03531 41.51018 37002 ft 400 kts 135°
2026-04-29 05:32 27.99623 41.55509 37002 ft 400 kts 135°
2026-04-29 05:32 27.95713 41.59999 37000 ft 400 kts 135°
2026-04-29 05:33 27.91806 41.64483 37000 ft 400 kts 135°
2026-04-29 05:33 27.87902 41.68964 37002 ft 400 kts 135°
2026-04-29 05:34 27.83991 41.73451 37001 ft 400 kts 135°
2026-04-29 05:34 27.80082 41.77935 37001 ft 400 kts 135°
2026-04-29 05:35 27.76171 41.82417 37001 ft 400 kts 135°
2026-04-29 05:35 27.72267 41.86892 37001 ft 400 kts 135°
2026-04-29 05:36 27.68357 41.91371 37002 ft 400 kts 135°
2026-04-29 05:36 27.64453 41.95842 37002 ft 400 kts 135°
2026-04-29 05:37 27.60546 42.00314 37001 ft 400 kts 135°
2026-04-29 05:37 27.56635 42.04789 37002 ft 400 kts 135°
2026-04-29 05:38 27.52723 42.09264 37000 ft 400 kts 135°
2026-04-29 05:38 27.48819 42.13729 37001 ft 400 kts 135°
2026-04-29 05:39 27.44908 42.18199 37003 ft 400 kts 135°
2026-04-29 05:39 27.41002 42.22663 37000 ft 400 kts 135°
2026-04-29 05:40 27.37099 42.27121 37001 ft 400 kts 135°
2026-04-29 05:40 27.33191 42.31584 37001 ft 400 kts 135°
2026-04-29 05:41 27.29284 42.36044 37001 ft 400 kts 135°
2026-04-29 05:41 27.25379 42.40500 37002 ft 400 kts 135°
2026-04-29 05:42 27.21495 42.44930 37001 ft 400 kts 135°
2026-04-29 05:42 27.17587 42.49387 37001 ft 400 kts 135°
2026-04-29 05:43 27.13680 42.53840 37001 ft 400 kts 135°
2026-04-29 05:43 27.09771 42.58295 37001 ft 400 kts 135°
2026-04-29 05:44 27.05867 42.62742 37000 ft 400 kts 135°
2026-04-29 05:44 27.01959 42.67191 37002 ft 400 kts 135°
2026-04-29 05:45 26.98050 42.71642 37001 ft 400 kts 135°
2026-04-29 05:45 26.94144 42.76087 37001 ft 400 kts 135°
2026-04-29 05:46 26.90230 42.80538 37000 ft 400 kts 135°
2026-04-29 05:46 26.86325 42.84979 37001 ft 401 kts 135°
2026-04-29 05:47 26.82415 42.89424 37002 ft 401 kts 135°
2026-04-29 05:47 26.78501 42.93871 37000 ft 400 kts 135°
2026-04-29 05:48 26.74632 42.98166 36722 ft 386 kts 136°
2026-04-29 05:48 26.72678 43.00247 36002 ft 393 kts 136°
2026-04-29 05:48 26.70782 43.02541 35207 ft 408 kts 126°
2026-04-29 05:49 26.69440 43.05366 34472 ft 420 kts 105°
2026-04-29 05:49 26.69239 43.08613 33438 ft 437 kts 77°
2026-04-29 05:49 26.70685 43.11687 31847 ft 462 kts 41°
2026-04-29 05:49 26.73648 43.13123 30026 ft 487 kts 359°
2026-04-29 05:50 26.76720 43.11784 28498 ft 497 kts 311°
2026-04-29 05:50 26.77778 43.08244 27257 ft 497 kts 258°
2026-04-29 05:50 26.75787 43.05275 25839 ft 499 kts 201°
2026-04-29 05:50 26.72483 43.05726 24046 ft 508 kts 139°
2026-04-29 05:51 26.71416 43.09283 22297 ft 515 kts 72°
2026-04-29 05:51 26.73977 43.11714 20905 ft 511 kts
2026-04-29 05:51 26.76781 43.09792 19535 ft 504 kts 288°
2026-04-29 05:51 26.75810 43.06366 17845 ft 496 kts 210°
2026-04-29 05:52 26.72692 43.06832 16062 ft 488 kts 128°
2026-04-29 05:52 26.72620 43.10279 14669 ft 472 kts 50°
2026-04-29 05:52 26.75422 43.11326 15157 ft 418 kts 341°
2026-04-29 05:52 26.77244 43.09330 16482 ft 353 kts 284°
2026-04-29 05:53 26.76937 43.06791 16525 ft 332 kts 236°
2026-04-29 05:53 26.75113 43.05257 15741 ft 339 kts 195°
2026-04-29 05:53 26.72829 43.05263 15702 ft 322 kts 162°
2026-04-29 05:53 26.71020 43.06424 16329 ft 283 kts 136°
2026-04-29 05:54 26.69889 43.08104 16483 ft 266 kts 117°
2026-04-29 05:54 26.69234 43.10065 15837 ft 278 kts 104°
2026-04-29 05:54 26.68927 43.12274 15082 ft 295 kts 94°
2026-04-29 05:54 26.68911 43.14543 14954 ft 285 kts 87°
2026-04-29 05:55 26.69120 43.16660 15141 ft 264 kts 81°
2026-04-29 05:55 26.69505 43.18636 14908 ft 261 kts 75°
2026-04-29 05:55 26.70061 43.20620 14208 ft 276 kts 70°
2026-04-29 05:55 26.70751 43.22550 13685 ft 284 kts 66°
2026-04-29 05:56 26.71644 43.24586 13635 ft 271 kts 61°
2026-04-29 05:56 26.72576 43.26348 13643 ft 257 kts 57°
2026-04-29 05:56 26.73593 43.27998 13246 ft 261 kts 53°
2026-04-29 05:56 26.74744 43.29639 12637 ft 273 kts 50°
2026-04-29 05:57 26.76007 43.31241 12326 ft 272 kts 46°
2026-04-29 05:57 26.77311 43.32705 12308 ft 259 kts 43°
2026-04-29 05:57 26.78638 43.34025 12132 ft 254 kts 39°
2026-04-29 05:57 26.80047 43.35259 11644 ft 262 kts 36°
2026-04-29 05:58 26.81569 43.36427 11176 ft 268 kts 32°
2026-04-29 05:58 26.83156 43.37483 11015 ft 261 kts 28°
2026-04-29 05:58 26.84740 43.38371 10913 ft 251 kts 24°
2026-04-29 05:58 26.86358 43.39119 10584 ft 253 kts 20°
2026-04-29 05:59 26.88050 43.39741 10122 ft 260 kts 15°
2026-04-29 05:59 26.89805 43.40220 9834 ft 258 kts 11°
2026-04-29 05:59 26.91550 43.40539 9712 ft 250 kts
2026-04-29 05:59 26.93269 43.40706 9485 ft 247 kts
2026-04-29 06:00 26.94996 43.40735 9078 ft 251 kts 358°
2026-04-29 06:00 26.96753 43.40632 8723 ft 254 kts 354°
2026-04-29 06:00 26.98490 43.40397 8552 ft 248 kts 351°
2026-04-29 06:00 27.00163 43.40060 8383 ft 242 kts 347°
2026-04-29 06:01 27.01801 43.39617 8047 ft 244 kts 344°
2026-04-29 06:01 27.03439 43.39035 7676 ft 248 kts 339°
2026-04-29 06:01 27.05032 43.38314 7453 ft 245 kts 335°
2026-04-29 06:01 27.06538 43.37473 7293 ft 239 kts 330°
2026-04-29 06:02 27.07955 43.36510 7010 ft 238 kts 325°
2026-04-29 06:02 27.09305 43.35412 6631 ft 242 kts 321°
2026-04-29 06:02 27.10584 43.34187 6350 ft 241 kts 316°
2026-04-29 06:02 27.11758 43.32873 6182 ft 236 kts 312°
2026-04-29 06:03 27.12813 43.31484 5942 ft 233 kts 307°
2026-04-29 06:03 27.13776 43.30009 5620 ft 236 kts 303°
2026-04-29 06:03 27.14662 43.28451 5345 ft 236 kts 300°
2026-04-29 06:03 27.15419 43.26835 5148 ft 232 kts 294°
2026-04-29 06:04 27.16060 43.25186 4927 ft 229 kts 291°
2026-04-29 06:04 27.16613 43.23508 4614 ft 230 kts 288°
2026-04-29 06:04 27.17105 43.21794 4311 ft 231 kts 286°
2026-04-29 06:04 27.17523 43.20056 4081 ft 229 kts 283°
2026-04-29 06:05 27.17841 43.18317 3872 ft 226 kts 279°
2026-04-29 06:05 27.18061 43.16573 3614 ft 226 kts 276°
2026-04-29 06:05 27.18200 43.14843 3333 ft 226 kts 273°
2026-04-29 06:05 27.18263 43.13081 3080 ft 225 kts 270°
2026-04-29 06:06 27.18240 43.11337 2842 ft 223 kts 267°
2026-04-29 06:06 27.18124 43.09604 2588 ft 222 kts 263°
2026-04-29 06:06 27.17916 43.07948 2526 ft 206 kts 259°
2026-04-29 06:06 27.17624 43.06478 2468 ft 175 kts 252°
2026-04-29 06:07 27.17387 43.05305 2458 ft 124 kts 271°
2026-04-29 06:07 27.17418 43.04772 2474 ft 2 kts 274°